www.pogodaiklimat.ru

Погода и климат >> Архив погоды >> Венгрия >> Debrecen


ПОГОДА в Debrecen

  • Прогноз погоды в Debrecen
  • Монитор погоды в Debrecen
  • Климат города

АРХИВ ПОГОДЫ в Debrecen

Время (UTC), дата Ветер
(напр.,м/с)
 
Видим.   Явления Облачность Т
(С)
Тd
(С)
f
(%)
Тe
(С)
Тes
(С)
Комфортность P
(гПа)
Po
(гПа)
Тmin
(С)
Tmax
(С)
R
(мм)
R24
(мм)
S
(см)
04 17.10 СВ 2 12 км 8/0
[Cs]
+6.6 +2.3 74 +5 +5 1023.1 1009.7
05 17.10 СВ 1 15 км 8/0
[Cs]
+6.6 +1.9 72 +6 +6 1023.2 1009.8
06 17.10 СВ 2 15 км 8/0
[Cs]
+6.6 +3.0 78 +4 +5 1023.6 1010.2 +5.9
07 17.10 В 1 15 км 9/0
[Cs]
+8.8 +3.2 68 +8 +10 1023.7 1010.4
08 17.10 В 2 15 км 9/0
[Cs]
+12.0 +3.5 56 +11 +14 1023.3 1010.2
09 17.10 СВ 1 15 км 6/0
[Ci sp]
+16.6 +4.0 43 +18 +22 1023.0 1010.1
10 17.10 СВ 2 20 км 6/0
[Ci sp]
+19.1 +4.5 38 +20 +25 1022.6 1009.8
11 17.10 В 3 20 км 8/0
[Ci sp]
+20.6 +4.6 35 +22 +26 комфорт 1021.8 1009.1
12 17.10 СВ 2 25 км 4/0
[Ci sp]
+22.3 +3.9 30 +22 +27 комфорт 1021.0 1008.3
13 17.10 СВ 2 30 км 3/0
[Ci sp]
+23.4 +3.4 27 +23 +26 комфорт 1020.4 1007.8
14 17.10 СВ 2 30 км 3/0
[Ci sp]
+23.4 +2.8 26 +23 +24 комфорт 1020.1 1007.5
15 17.10 С 2 25 км 3/0
[Ci sp]
+21.9 +3.6 30 +22 +22 комфорт 1019.9 1007.2
16 17.10 С 2 20 км 3/0
[Ci sp]
+19.6 +4.1 36 +21 +21 комфорт 1020.0 1007.2
17 17.10 С 2 20 км 1/0
[Ci sp]
+17.3 +4.6 43 +18 +18 1020.1 1007.2
18 17.10 СВ 2 20 км ясно +15.5 +4.5 48 +16 +16 1020.1 1007.2 +23.7
19 17.10 СВ 2 20 км ясно +14.4 +4.7 52 +14 +14 1020.3 1007.3
20 17.10 С 2 20 км ясно +13.9 +4.5 53 +14 +14 1020.2 1007.2
21 17.10 СВ 2 20 км ясно +12.6 +4.3 57 +12 +12 1020.2 1007.1
22 17.10 СВ 2 20 км ясно +11.6 +4.1 60 +11 +11 1020.0 1006.9
23 17.10 СВ 1 15 км ясно +10.7 +3.7 62 +11 +11 1020.1 1006.9
00 18.10 штиль 0 н/о н/о +8.7 +3.5 70 +8 +8 1020.2 1006.9
01 18.10 СВ 2 н/о н/о +7.7 +3.4 74 +6 +6 1019.9 1006.6
02 18.10 В 2 н/о н/о +6.8 +2.3 73 +5 +5 1019.9 1006.6
03 18.10 СВ 1 15 км ясно +7.0 +3.1 76 +6 +6 1019.7 1006.4
04 18.10 В 1 15 км ясно +5.9 +2.4 78 +5 +5 1019.7 1006.3
05 18.10 СВ 1 12 км 4/0
[Ac lent Ci sp]
+6.2 +2.8 79 +5 +5 1019.5 1006.1
06 18.10 В 2 7000 м 4/0
[Ac lent Ci sp]
+6.5 +2.9 78 +4 +5 1019.8 1006.4 +5.4
07 18.10 В 1 8000 м 5/0
[Ci sp]
+9.2 +4.6 73 +9 +10 1019.9 1006.7
08 18.10 ЮВ 1 10 км 5/0
[Ci sp]
+14.6 +5.7 55 +15 +18 1019.6 1006.6
09 18.10 ЮВ 1 15 км 5/0
[Ci sp]
+17.1 +6.0 48 +18 +23 1019.2 1006.3
10 18.10 штиль 0 15 км 5/0
[Ci sp]
+19.9 +5.9 40 +20 +27 1019.0 1006.3
11 18.10 штиль 0 13 км 8/0
[Ac und Ci sp]
+20.7 +5.9 38 +21 +27 комфорт 1018.4 1005.7
12 18.10 СЗ 1 15 км 9/0
[Ac As]
+22.5 +6.3 35 +23 +25 комфорт 1017.9 1005.3
13 18.10 СЗ 1 15 км 9/0
[Ac As]
+21.8 +6.1 36 +22 +24 комфорт 1017.6 1005.0
14 18.10 СЗ 1 13 км слабый дождь 9/0
[Ac As]
+21.2 +6.3 38 +22 +23 комфорт 1017.6 1004.9
15 18.10 С 2 14 км пыль {дождь} 9/3 1500 м
[Sc Ac As]
+19.3 +10.8 58 +21 +21 комфорт 1017.4 1004.7
16 18.10 С 2 12 км в посл. час дождь 9/0
[Ac As]
+18.4 +10.0 58 +19 +19 1017.6 1004.8
17 18.10 С 2 12 км в посл. час дождь 9/0
[Ac As]
+17.1 +11.2 68 +17 +17 1017.8 1005.0
18 18.10 С 2 13 км слабый дождь 9/0
[Ac As]
+17.0 +9.4 61 +17 +17 1018.3 1005.4 +22.7
19 18.10 СВ 1 12 км в посл. час дождь 10/0
[Ac As]
+15.9 +10.4 70 +17 +17 1018.4 1005.5
20 18.10 С 1 12 км слабый дождь 10/0
[Ac As]
+15.7 +9.8 68 +16 +16 1018.5 1005.6
21 18.10 В 2 12 км слабый дождь 10/10 1500 м
[Sc]
+14.2 +11.2 82 +14 +14 1018.8 1005.8
22 18.10 штиль 0 13 км слабый дождь 10/5 1500 м
[Sc Ac As]
+15.0 +10.4 74 +15 +15 1018.7 1005.8
23 18.10 С 2 н/о н/о +14.7 +10.1 74 +14 +14 1018.6 1005.6
00 19.10 В 2 н/о н/о +13.8 +10.0 78 +13 +13 1018.5 1005.5 0.1
01 19.10 В 2 н/о н/о +13.5 +10.1 80 +13 +13 1018.5 1005.5
02 19.10 С 2 н/о н/о +13.8 +9.6 76 +13 +13 1018.4 1005.4
03 19.10 штиль 0 15 км 8/0
[Ac As]
+12.3 +9.5 83 +12 +12 1018.7 1005.6
04 19.10 С 2 15 км 9/0
[Ac As]
+13.0 +9.3 78 +12 +12 1018.1 1005.1
05 19.10 З 1 7000 м 10/0
[Ac As]
+11.8 +8.6 81 +12 +12 1018.6 1005.5
06 19.10 ЮЗ 1 7000 м 9/0
[Ac As]
+11.4 +9.1 86 +11 +11 1018.8 1005.7 +11.1 0.1 0
07 19.10 штиль 0 8000 м 9/3 1500 м
[Sc Ac As]
+12.5 +9.9 84 +12 +12 1019.3 1006.2
08 19.10 штиль 0 7000 м слабый дождь 10/4 1300 м
[Sc Ac As]
+13.4 +9.8 79 +13 +14 1020.0 1007.0
09 19.10 З 2 6000 м слабый дождь 10/4 1300 м
[Sc Ac As]
+13.6 +10.8 83 +13 +14 1020.7 1007.7
10 19.10 СЗ 2 6000 м слабый дождь 10/5 1300 м
[Sc Ac As]
+13.9 +10.7 81 +13 +14 1020.3 1007.3
11 19.10 С 2 9000 м в посл. час дождь 9/3 1500 м
[Sc Ac As]
+14.8 +10.4 75 +15 +16 1019.4 1006.4
12 19.10 З 2 10 км {дождь} 9/0
[Ac As]
+16.4 +10.7 69 +17 +18 1019.3 1006.4 0.4
13 19.10 СЗ 2 10 км 9/3 1500 м
[Sc Ac As]
+17.4 +10.3 63 +18 +19 1019.0 1006.2
14 19.10 З 2 10 км 9/0
[Ac As]
+17.7 +10.3 62 +18 +19 1018.9 1006.1
15 19.10 З 2 10 км 9/0
[Ac As]
+16.9 +10.7 67 +17 +17 1019.2 1006.3
16 19.10 З 1 8000 м 9/4 1500 м
[Sc Ac As]
+16.1 +10.8 71 +17 +17 1019.1 1006.2
17 19.10 СЗ 1 8000 м слабый дождь 10/4 1500 м
[Sc Ac As]
+15.6 +11.2 75 +16 +16 1019.6 1006.7
18 19.10 С 1 8000 м слабый дождь 10/0
[Ac As]
+14.9 +11.1 78 +15 +15 1019.9 1006.9 +17.7 0.4
19 19.10 штиль 0 7000 м в посл. час дождь 10/4 1500 м
[Sc Ac As]
+14.8 +11.2 79 +15 +15 1020.3 1007.3
20 19.10 ЮЗ 1 6000 м 10/3 1500 м
[Sc Ac As]
+13.5 +11.0 85 +14 +14 1020.4 1007.4
21 19.10 ЮЗ 1 5000 м дымка 10/0
[Ac As]
+13.1 +10.8 86 +13 +13 1020.6 1007.5
22 19.10 З 2 5000 м дымка 10/0
[Ac As]
+13.3 +10.8 85 +13 +13 1020.4 1007.4
23 19.10 штиль 0 6000 м 10/0
[Ac As]
+12.8 +10.5 86 +12 +12 1020.7 1007.6
00 20.10 СЗ 1 н/о н/о +13.7 +10.5 81 +14 +14 1020.8 1007.8
01 20.10 С 1 н/о н/о +13.5 +10.3 81 +14 +14 1020.8 1007.8
02 20.10 С 1 н/о н/о +13.3 +10.3 82 +13 +13 1020.7 1007.7
03 20.10 С 2 4800 м в посл. час дождь 9/9 1500 м
[Sc]
+13.4 +10.2 81 +13 +13 1020.8 1007.8
04 20.10 С 2 4700 м дымка 9/4 1500 м
[Sc Ac As]
+13.2 +10.0 81 +12 +12 1021.0 1007.9
05 20.10 С 3 3100 м дымка 9/0
[Ac As]
+12.8 +9.6 81 +11 +11 1021.1 1008.0
06 20.10 ЮВ 1 3100 м дымка {дождь} 9/0
[Ac As]
+11.4 +9.1 86 +11 +11 1021.7 1008.6 +11.4
07 20.10 штиль 0 2200 м дымка 9/0
[Ac As]
+11.8 +10.0 89 +11 +12 1022.2 1009.1
08 20.10 С 2 3500 м дымка 9/0
[Ac As]
+13.7 +9.7 77 +13 +14 1022.5 1009.4
09 20.10 СВ 3 4000 м мгла 9/0
[Ac As]
+14.7 +9.7 72 +14 +15 1022.7 1009.7
10 20.10 С 3 4700 м мгла 9/0
[Ac As]
+15.3 +9.4 68 +15 +16 1022.9 1009.9
11 20.10 С 2 8000 м 9/0
[Ac As]
+15.9 +9.6 66 +16 +18 1022.5 1009.5
12 20.10 С 2 7000 м 9/0
[Ac As]
+17.7 +10.1 61 +18 +20 1022.0 1009.1
13 20.10 С 2 7000 м 4/0
[Ac cast]
+18.1 +9.2 56 +19 +21 1021.5 1008.7
14 20.10 СЗ 2 6000 м 8/0
[Ac As]
+18.4 +9.5 56 +19 +20 1021.2 1008.4
15 20.10 СЗ 3 7000 м 8/0
[Ac As]
+17.4 +9.1 58 +17 +18 1021.2 1008.3
16 20.10 С 2 6000 м 9/0
[Ac As]
+15.7 +9.1 65 +16 +16 1021.3 1008.4
17 20.10 СВ 2 8000 м 9/0
[Ac As]
+15.0 +8.9 67 +15 +15 1021.4 1008.4
18 20.10 С 3 7000 м 9/0
[Ac As]
+14.7 +8.9 68 +14 +14 1021.5 1008.5 +18.5
19 20.10 СВ 5 8000 м 9/9 1500 м
[Sc]
+14.0 +8.0 67 +12 +12 1021.5 1008.5
20 20.10 СВ 4 8000 м 9/9 1200 м
[Sc]
+13.3 +8.0 70 +12 +12 1021.4 1008.3
21 20.10 СВ 4
{7}
8000 м 9/9 1080 м
[Sc]
+12.8 +8.1 73 +11 +11 1021.1 1008.0
22 20.10 СВ 4 8000 м 9/9 1000 м
[Sc]
+12.6 +7.7 72 +11 +11 1020.8 1007.7
23 20.10 СВ 4 8000 м 9/9 1000 м
[Sc]
+12.5 +7.6 72 +11 +11 1020.5 1007.4
00 21.10 СВ 6
{9}
н/о н/о +11.7 +8.0 78 +9 +9 1019.8 1006.7 0.3
01 21.10 С 7
{11}
н/о н/о +10.7 +7.2 79 +7 +7 1019.8 1006.6
02 21.10 СВ 7
{12}
н/о н/о +9.4 +5.2 75 +6 +6 1019.6 1006.4
03 21.10 С 8 20 км {дождь} 10/10 900 м
[Sc]
+9.2 +3.8 69 +5 +5 1019.6 1006.4
04 21.10 С 7
{15}
20 км 10/9 900 м
[Sc]
+9.2 +3.6 68 +5 +5 1019.5 1006.3
05 21.10 С 9 25 км 10/8 900 м
[Sc Ac As]
+9.1 +3.1 66 +5 +5 1019.2 1006.0
06 21.10 С 7 25 км {дождь} 10/8 900 м
[Sc Ac As]
+9.2 +3.4 67 +5 +5 1019.6 1006.4 +9.1 0.7 0
07 21.10 СВ 7 30 км 10/10 800 м
[Sc]
+9.1 +3.7 69 +5 +5 1020.2 1007.0
08 21.10 С 5 30 км в посл. час дождь 10/10 700 м
[Sc]
+8.9 +4.7 75 +6 +6 1020.6 1007.4
09 21.10 С 4 30 км {дождь} 9/9 700 м
[Sc]
+9.6 +5.0 73 +7 +7 1021.1 1007.9
10 21.10 СВ 5
{7}
30 км 9/9 700 м
[Sc]
+10.8 +5.6 70 +8 +8 1021.4 1008.2
11 21.10 СВ 5
{8}
30 км 9/9 600 м
[Sc]
+11.4 +5.9 69 +9 +9 1021.3 1008.2
12 21.10 СВ 4
{7}
30 км {дождь} 9/8 600 м
[Cu Sc Ac As]
+12.8 +6.6 66 +11 +12 1021.4 1008.3
13 21.10 СВ 3 30 км 10/10 600 м
[Cu Sc]
+12.1 +6.4 68 +11 +11 1021.8 1008.7
14 21.10 С 2 30 км 10/9 600 м
[Cu Sc]
+12.2 +6.7 69 +11 +11 1021.8 1008.7
15 21.10 С 2 30 км 10/9 600 м
[Cu Sc]
+12.4 +6.9 69 +12 +12 1022.1 1009.0
16 21.10 штиль 0 25 км 10/10 600 м
[Sc]
+12.3 +7.2 71 +12 +12 1022.6 1009.5
17 21.10 СВ 1 25 км 10/6 700 м
[Sc Ac As]
+12.1 +7.4 73 +12 +12 1023.2 1010.1
18 21.10 штиль 0 20 км 10/6 700 м
[Sc Ac As]
+11.8 +7.5 75 +11 +11 1023.7 1010.5 +12.9
19 21.10 В 1 20 км 10/10 600 м
[Sc]
+11.7 +7.8 77 +12 +12 1024.2 1011.0
20 21.10 СВ 3 20 км 10/8 900 м
[Sc Ac As]
+11.6 +7.3 75 +10 +10 1024.5 1011.3
21 21.10 С 1 20 км 9/4 1300 м
[Sc Ac As]
+11.2 +6.1 71 +11 +11 1024.9 1011.7
22 21.10 С 2 20 км 9/4 1000 м
[Sc Ac As]
+10.7 +5.5 70 +10 +10 1024.9 1011.7
23 21.10 С 2 20 км 9/4 1380 м
[Sc Ac As]
+10.4 +5.2 70 +9 +9 1024.9 1011.7
00 22.10 СВ 3 н/о н/о +10.3 +4.9 69 +8 +8 1024.5 1011.3
01 22.10 СВ 2 н/о н/о +9.6 +4.8 72 +8 +8 1024.7 1011.4
02 22.10 С 2 н/о н/о +9.4 +5.0 74 +8 +8 1024.3 1011.0
03 22.10 СВ 2 25 км 4/3 600 м
[Sc Ac lent]
+8.6 +4.6 76 +7 +7 1024.1 1010.8
04 22.10 СВ 3 25 км 9/9 600 м
[Sc]
+9.0 +4.8 75 +7 +7 1024.2 1010.9
05 22.10 СВ 3 20 км 9/9 570 м
[Sc]
+9.1 +4.7 74 +7 +7 1024.2 1010.9
06 22.10 СВ 3 20 км 9/4 1000 м
[Sc Ac As]
+9.3 +4.5 72 +7 +7 1024.7 1011.4 +8.4
07 22.10 СВ 3 20 км 9/0
[Ac As]
+9.6 +4.4 70 +7 +8 1025.3 1012.0
08 22.10 СВ 3 20 км 10/6 480 м
[Sc Ac As]
+10.4 +4.5 67 +9 +9 1025.2 1012.0
09 22.10 СВ 2 18 км 10/10 480 м
[Sc]
+11.2 +5.1 66 +10 +10 1025.3 1012.1
10 22.10 З 1 17 км 10/10 480 м
[Sc]
+12.1 +5.9 66 +12 +12 1025.2 1012.0
11 22.10 В 1 16 км 9/3 480 м
[Sc Ac As]
+12.9 +6.3 64 +13 +15 1024.4 1011.3
12 22.10 С 1 18 км 9/1 600 м
[Cu hum Ac trans]
+13.9 +7.0 63 +14 +17 1024.1 1011.0
13 22.10 штиль 0 20 км 9/3 1000 м
[Sc Ac As]
+14.3 +7.6 64 +14 +15 1023.7 1010.7
14 22.10 В 1 15 км 10/6 1000 м
[Sc Ac As]
+14.2 +7.7 65 +15 +15 1023.4 1010.4
15 22.10 штиль 0 15 км 9/9 2000 м
[Sc]
+13.9 +7.4 65 +14 +14 1023.2 1010.1
16 22.10 З 1 12 км 9/6 2000 м
[Sc Ac As]
+13.4 +7.8 69 +14 +14 1023.0 1009.9
17 22.10 СЗ 1 12 км 10/0
[Ac As]
+12.6 +7.5 71 +13 +13 1023.2 1010.1
18 22.10 З 1 15 км 10/0
[Ac As]
+12.4 +7.1 70 +13 +13 1023.3 1010.2 +14.4
19 22.10 ЮЗ 1 12 км 10/0
[Ac As]
+11.1 +7.0 76 +11 +11 1023.5 1010.3
20 22.10 штиль 0 12 км 9/0
[Ac As]
+10.8 +6.9 77 +10 +10 1023.6 1010.4
21 22.10 ЮЗ 1 10 км 9/0
[Ac As]
+10.5 +7.0 79 +10 +10 1023.6 1010.4
22 22.10 ЮЗ 1 10 км 9/6 2000 м
[Sc Ac As]
+10.2 +7.1 81 +10 +10 1023.3 1010.1
23 22.10 Ю 1 8000 м 9/5 2000 м
[Sc Ac As]
+10.1 +7.2 82 +10 +10 1023.1 1009.9
00 23.10 Ю 1 н/о н/о +10.0 +7.2 83 +10 +10 1022.6 1009.4
01 23.10 Ю 2 н/о н/о +9.7 +6.8 82 +8 +8 1021.8 1008.6
02 23.10 штиль 0 н/о н/о +9.6 +7.0 84 +9 +9 1021.9 1008.7
03 23.10 штиль 0 10 км 10/9 1500 м
[Sc]
+9.7 +7.1 84 +9 +9 1022.1 1008.9
04 23.10 Ю 1 9000 м 9/9 1500 м
[Sc]
+9.3 +6.9 85 +9 +9 1021.9 1008.7
05 23.10 Ю 1 7000 м 9/5 1500 м
[Sc Ac As]
+8.8 +6.8 87 +8 +8 1021.7 1008.4
06 23.10 ЮВ 1 6000 м 9/3 1500 м
[Sc Ac As]
+8.4 +6.5 88 +8 +8 1021.6 1008.3 +8.3
07 23.10 Ю 1 7000 м 9/3 1500 м
[Sc Ac As]
+9.3 +6.9 85 +9 +9 1021.7 1008.5
08 23.10 Ю 1 10 км 9/9 1500 м
[Sc]
+11.2 +7.3 77 +11 +11 1021.3 1008.1
09 23.10 Ю 3 10 км 4/4 1500 м
[Sc]
+11.7 +7.0 73 +10 +12 1020.5 1007.4
10 23.10 Ю 4 10 км 4/1 1500 м
[Sc Ci sp]
+13.2 +6.1 62 +12 +15 1019.4 1006.4
11 23.10 ЮЗ 5
{8}
15 км 6/1 1500 м
[Sc Ci sp]
+14.6 +5.9 56 +13 +15 1018.2 1005.2
12 23.10 ЮЗ 6
{9}
20 км 8/6 1000 м
[Cu Sc Ci sp]
+14.9 +5.4 53 +13 +14 1016.9 1004.0
13 23.10 З 7 20 км 9/3 1200 м
[Cu med, cong Ac As Ci sp]
+15.4 +5.0 50 +14 +14 1015.9 1003.0
14 23.10 З 8
{12}
30 км 9/1 1300 м
[Sc diur, vesp Ac As Cs]
+15.0 +2.9 44 +13 +13 1015.1 1002.2
15 23.10 З 8 30 км 9/0
[Ac As]
+13.3 +2.2 47 +11 +11 1014.2 1001.2
16 23.10 З 8
{14}
25 км 9/0
[Ac As]
+12.6 +2.2 49 +10 +10 1013.8 1000.8
17 23.10 З 7
{13}
20 км слабый дождь 10/0
[Ac As]
+12.1 +2.3 51 +9 +9 1014.0 1001.0
18 23.10 З 7
{11}
н/о н/о +10.9 +4.8 66 +8 +8 1013.2 1000.1 +15.9
19 23.10 ЮЗ 6
{8}
н/о н/о +10.1 +5.5 73 +7 +7 1012.3 999.2
20 23.10 ЮЗ 7
{9}
н/о н/о +10.1 +6.3 77 +6 +6 1010.8 997.7
21 23.10 ЮЗ 9 н/о н/о +10.9 +6.1 72 +7 +7 1009.3 996.3
22 23.10 З 9
{14}
н/о н/о +12.0 +5.2 63 +9 +9 1008.2 995.3
23 23.10 З 9 н/о н/о +11.6 +5.7 67 +8 +8 1007.4 994.4
00 24.10 З 8
{13}
н/о н/о +10.4 +6.2 75 +7 +7 1006.7 993.7 1
01 24.10 З 9
{14}
н/о н/о +10.2 +6.4 77 +6 +6 1005.6 992.6
02 24.10 З 9
{14}
н/о н/о +10.5 +6.5 76 +7 +7 1004.7 991.7
03 24.10 З 7 15 км слабый дождь 9/6 1000 м
[Sc Ac As]
+10.7 +6.3 74 +7 +7 1003.6 990.7
04 24.10 З 7
{13}
15 км в посл. час дождь 9/5 1000 м
[Sc Ac As]
+11.1 +6.2 72 +8 +8 1003.3 990.4

 

Местоположение метеостанции Debrecen (Венгрия): широта 47.48 долгота 21.60 высота над уровнем моря 109 м.

В архиве по умолчанию представлена погода в Debrecen за последнюю неделю. Архивные данные за месяц целиком и за предыдущие месяцы, начиная с января 2011 года, Вы можете получить, выбрав интересующий диапазон дат из раскрывающегося списка и нажав кнопку "Ввод!".


*Определитесь, кто Вы:
робот инопланетянин человек

Внимание! Время в таблицах - всемирное. Для получения местного времени необходимо прибавить поправку, которая в Debrecen равна 1 ч.

Смотрите также архив погоды в соседних городах и на ближайших метеорологических станциях:

Погода в Sacuieni (Румыния) (40 км)
Погода в Oradea (Румыния) (55 км)
Погода в Nyiregyhaza (Венгрия) (58 км)
Погода в Poroszlo (Венгрия) (75 км)
Погода в Holod (Румыния) (87 км)
Погода в Supuru De Jos (Румыния) (89 км)
Погода в Miskolc (Венгрия) (93 км)
Погода в Borod (Румыния) (94 км)
Погода в Bekescsaba (Венгрия) (95 км)
Погода в Satu Mare (Румыния) (100 км)

Пояснения к столбцам:

Ветер - указаны скорость ветра в м/с - средняя за 10 мин, порывы в срок и между сроками (в фигурных скобках) и направление, откуда дует ветер: С - северный, СВ - северо-восточный, В - восточный, ЮВ - юго-восточный, Ю - южный, ЮЗ - юго-западный, З - западный, СЗ - северо-западный.
Видимость - горизонтальная дальность видимости в метрах или километрах. При видимости от 1 до 10 км при отсутствии осадков обычно наблюдается дымка, при ухудшении видимости до 1 км и менее - туман. В сухую погоду видимость может ухудшаться дымом, пылью или мглою.
Явления - указаны атмосферные явления, наблюдавшиеся в срок или в последний час перед сроком; фигурными скобками обозначены явления, наблюдавшиеся между сроками (за 1-3 часа до срока); квадратными скобками обозначены град или гололедные отложения с указанием их диаметра в мм.
Облачность - указаны через наклонную черту общая и нижняя облачность в баллах и высота нижней границы облаков в метрах; квадратными скобками обозначены формы облаков: Ci - перистые, Cs - перисто-слоистые, Cc - перисто-кучевые, Ac - высококучевые, As - высокослоистые, Sc - слоисто-кучевые, Ns - слоисто-дождевые, Cu - кучевые, Cb - кучево-дождевые. Подробнее классификацию облаков см. в Атласе облаков (PDF).
T - Температура воздуха - температура, измеренная на высоте 2 м над землей.
Td - Температура точки росы - температура, при понижении до которой содержащийся в воздухе водяной пар достигнет насыщения.
f - Относительная влажность воздуха - влажноcть воздуха, измеренная на высоте 2 м над землей.
Te - Эффективная температура - температура, которую ощущает одетый по сезону человек в тени. Характеристика душности погоды. При расчете учитывается влияние влажности воздуха и скорости ветра на теплоощущения человека.
Tes - Эффективная температура на солнце - температура, которую ощущает человек, с поправкой на солнечный нагрев. Характеристика знойности погоды. Зависит от высоты солнца над горизонтом, облачности и скорости ветра. Ночью, в пасмурную погоду, а также при ветре 12 м/с и более поправка равна нулю.
P - Атмосферное давление - приведенное к уровню моря атмосферное давление.
Po - Атмосферное давление - измеренное на уровне метеостанции атмосферное давление.
Tmin - Минимальная температура - минимум температуры воздуха на высоте 2 м над землей.
Tmax - Максимальная температура - максимум температуры воздуха на высоте 2 м над землей.
R - Количество осадков - Количество выпавших осадков за период времени, мм. При наведении курсора мыши на число - период времени, за который выпало указанное количество осадков.
R24 - Количество осадков - Количество выпавших осадков за 24 часа, мм.
S - Снежный покров - Высота снежного покрова, см. При наведении курсора мыши на число - состояние снежного покрова и степень покрытия местности в баллах.